Wilmington, NC

7:50 AM EDT on March 23, 2017 (GMT -0400)
Wilmington International

Weather History for KILM - March, 2014

Change the Weather History Date:

Thursday, March 6, 2014

  Actual Average Record
Temperature  
Mean Temperature 40 °F 52 °F  
Max Temperature 46 °F 64 °F 84 °F (1976)
Min Temperature 34 °F 41 °F 21 °F (1960)
Degree Days  
Heating Degree Days 25 13  
Month to date heating degree days 126 80  
Since 1 July heating degree days 2060 2009  
Cooling Degree Days 0 0  
Month to date cooling degree days 0 0  
Year to date cooling degree days 5 5  
Moisture  
Dew Point 35 °F    
Average Humidity 81    
Maximum Humidity 92    
Minimum Humidity 70    
Precipitation  
Precipitation 1.06 in 0.14 in 1.92 in (1959)
Month to date precipitation 1.17 0.82  
Year to date precipitation 6.63 8.20  
Snow  
Snow 0.00 in 0.00 in 0.40 in (1965)
Month to date snowfall 0.0 0.0  
Since 1 July snowfall 1.0 1.5  
Snow Depth 0.00 in    
Sea Level Pressure  
Sea Level Pressure 30.16 in    
Wind  
Wind Speed 18 mph (NNE)    
Max Wind Speed 29 mph    
Max Gust Speed 38 mph    
Visibility 6 miles    
Events Rain    
T = Trace of Precipitation, MM = Missing Value Source: NWS Daily Summary

Daily Weather History Graph

Daily Weather History Graph

Search for Another Location

Airport or City:

Trip Planner

Search our weather history database for the weather conditions in past years. The results will help you decide how hot, cold, wet, or windy it might be!

Date:

Astronomy

Mar. 06, 2014 Rise Set
Actual Time 6:34 AM EST 6:12 PM EST
Civil Twilight 6:09 AM EST 6:37 PM EST
Nautical Twilight 5:40 AM EST 7:06 PM EST
Astronomical Twilight 5:10 AM EST 7:35 PM EST
Moon 9:55 AM EST (3/6) No Moon Set
Length of Visible Light 12h 28m
Length of Day
11h 37m
Waxing Crescent, 32% of the Moon is Illuminated
Mar 6
Waxing Crescent
Mar 8
First Quarter
Mar 16
Full
Mar 23
Last Quarter
Mar 30
New

Hourly Weather History & Observations

Time (EST) Temp. Windchill Dew Point Humidity Pressure Visibility Wind Dir Wind Speed Gust Speed Precip Events Conditions
12:53 AM 39.0 °F 30.3 °F 33.1 °F 79% 30.23 in 10.0 mi NNE 16.1 mph - N/A   Overcast
1:06 AM 39.0 °F 31.4 °F 32.0 °F 76% 30.24 in 10.0 mi NNE 12.7 mph - N/A   Overcast
1:53 AM 37.0 °F 28.9 °F 30.9 °F 79% 30.24 in 10.0 mi NNE 12.7 mph - N/A   Mostly Cloudy
2:53 AM 36.0 °F 28.0 °F 30.0 °F 79% 30.22 in 10.0 mi NNE 11.5 mph - N/A   Clear
3:53 AM 35.1 °F 26.4 °F 28.9 °F 78% 30.21 in 10.0 mi NNE 12.7 mph - N/A   Clear
4:53 AM 34.0 °F 25.0 °F 28.0 °F 79% 30.22 in 10.0 mi NNE 12.7 mph - N/A   Clear
5:53 AM 34.0 °F 25.0 °F 28.0 °F 79% 30.24 in 10.0 mi NNE 12.7 mph - N/A   Clear
6:53 AM 34.0 °F 24.2 °F 28.0 °F 79% 30.25 in 9.0 mi NNE 15.0 mph - N/A   Overcast
7:53 AM 36.0 °F 27.1 °F 28.9 °F 76% 30.26 in 9.0 mi NNE 13.8 mph 23.0 mph N/A   Overcast
8:53 AM 39.0 °F 28.5 °F 30.0 °F 70% 30.26 in 10.0 mi NNE 23.0 mph - N/A   Overcast
9:11 AM 39.0 °F 29.6 °F 30.0 °F 70% 30.26 in 10.0 mi NNE 18.4 mph 25.3 mph N/A   Overcast
9:53 AM 39.9 °F 31.8 °F 30.9 °F 70% 30.25 in 10.0 mi NNE 15.0 mph 24.2 mph N/A   Overcast
10:51 AM 39.2 °F 30.8 °F 33.8 °F 81% 30.24 in 2.5 mi North 15.0 mph 23.0 mph 0.01 in Rain Light Rain
10:53 AM 39.0 °F 31.4 °F 34.0 °F 82% 30.24 in 3.0 mi North 12.7 mph 21.9 mph 0.01 in Rain Light Rain
11:06 AM 39.0 °F 31.0 °F 34.0 °F 82% 30.25 in 3.0 mi North 13.8 mph 23.0 mph 0.00 in Rain Light Rain
11:43 AM 39.0 °F 32.3 °F 35.1 °F 86% 30.25 in 7.0 mi North 10.4 mph 18.4 mph 0.00 in   Overcast
11:53 AM 39.9 °F 32.5 °F 36.0 °F 86% 30.24 in 5.0 mi North 12.7 mph - 0.00 in Rain Light Rain
12:17 PM 39.9 °F 31.8 °F 36.0 °F 86% 30.23 in 4.0 mi North 15.0 mph - 0.00 in Rain Light Rain
12:46 PM 39.9 °F 31.8 °F 37.0 °F 89% 30.22 in 2.0 mi North 15.0 mph - 0.01 in Rain Rain
12:53 PM 39.9 °F 32.1 °F 37.0 °F 89% 30.21 in 2.0 mi North 13.8 mph - 0.03 in Rain Light Rain
1:22 PM 41.0 °F 32.2 °F 37.9 °F 89% 30.19 in 3.0 mi NNE 18.4 mph - 0.03 in Rain Light Rain
1:53 PM 42.1 °F 33.6 °F 37.9 °F 85% 30.16 in 3.0 mi North 18.4 mph - 0.05 in Rain Light Rain
2:32 PM 42.1 °F 33.1 °F 39.0 °F 89% 30.13 in 2.0 mi NNE 20.7 mph 29.9 mph 0.06 in Rain Rain
2:53 PM 43.0 °F 34.5 °F 39.0 °F 86% 30.12 in 2.0 mi NNE 19.6 mph 28.8 mph 0.11 in Rain Rain
3:18 PM 43.0 °F 35.1 °F 39.9 °F 89% 30.12 in 3.0 mi NNE 17.3 mph - 0.06 in Rain Rain
3:53 PM 43.0 °F 34.2 °F 39.9 °F 89% 30.11 in 4.0 mi NNE 20.7 mph - 0.13 in Rain Light Rain
4:43 PM 43.0 °F 34.2 °F 39.9 °F 89% 30.10 in 2.5 mi NNE 20.7 mph 27.6 mph 0.08 in Rain Rain
4:53 PM 43.0 °F 34.0 °F 39.9 °F 89% 30.09 in 3.0 mi NNE 21.9 mph 31.1 mph 0.11 in Rain Light Rain
5:53 PM 43.0 °F 33.5 °F 39.0 °F 86% 30.08 in 4.0 mi NNE 24.2 mph 27.6 mph 0.07 in Rain Light Rain
6:53 PM 42.1 °F 32.1 °F 39.0 °F 89% 30.04 in 4.0 mi NNE 25.3 mph 29.9 mph 0.08 in Rain Rain
7:53 PM 41.0 °F 31.4 °F 37.9 °F 89% 30.03 in 4.0 mi NNE 21.9 mph 34.5 mph 0.09 in Rain Rain
8:53 PM 41.0 °F 31.1 °F 37.9 °F 89% 30.00 in 4.0 mi NNE 23.0 mph 32.2 mph 0.15 in Rain Rain
9:53 PM 42.1 °F 32.1 °F 39.0 °F 89% 29.94 in 9.0 mi NNE 25.3 mph 38.0 mph 0.08 in Rain Light Rain
10:53 PM 45.0 °F 36.0 °F 42.1 °F 90% 29.91 in 4.0 mi NE 25.3 mph 33.4 mph 0.04 in Rain Rain
11:53 PM 46.0 °F 37.2 °F 43.0 °F 89% 29.85 in 5.0 mi NNE 26.5 mph 35.7 mph 0.09 in Rain Rain